CAPE
3 1 3 1 2 1 2 1 1 1 1 0 0 0 0 0 0 0 0 0 0 0 0 0 0 0 0 0 0 0 0 0 0 0 0 0 0 0 0 0 0 0 0 0 0 0 0
2 1 2 3 1 2 1 1 0 0 0 0 0 0 0 0 0 0 0 0 0 0 0 0 0 0 0 0 0 0 0 0 0 0 0 0 0 0 0 0 0 0 0 0 0 0 0
2 1 2 2 2 2 1 1 1 1 0 0 0 0 0 0 0 0 0 0 0 0 0 0 0 0 0 0 0 0 0 0 0 0 0 0 0 0 0 0 0 0 0 0 0 0 0
0 1 2 2 2 1 1 0 1 1 0 0 0 0 0 0 0 0 0 0 0 0 0 0 0 0 0 0 0 0 0 0 0 0 0 0 0 0 0 0 0 0 0 0 0 0 0
0 1 1 1 1 1 2 1 1 1 0 0 0 0 0 0 0 0 0 0 0 0 0 0 0 0 0 0 0 0 0 0 0 0 0 0 0 0 0 0 0 0 0 0 0 0 0
1 1 0 0 1 1 1 1 1 1 0 0 0 0 0 0 0 0 0 0 0 0 0 0 0 0 0 0 0 0 0 0 0 0 0 0 0 0 0 0 0 0 0 0 0 0 0
0 1 0 1 1 1 0 0 0 0 0 0 0 0 0 0 0 0 0 0 0 0 0 0 0 0 0 0 0 0 0 0 0 0 0 0 0 0 0 0 0 0 0 0 0 0 0
0 0 0 0 0 1 0 0 0 0 0 0 0 0 0 0 0 0 0 0 0 0 0 0 0 0 0 0 0 0 0 0 0 0 0 0 0 0 0 0 0 0 0 0 0 0 0
0 0 0 0 0 0 0 0 0 0 0 0 0 0 0 0 0 0 0 0 0 0 0 0 0 0 0 0 0 0 0 0 0 0 0 0 0 0 0 0 0 0 0 0 0 0 0
0 0 0 0 0 0 0 0 0 0 0 0 0 0 0 0 0 0 0 0 0 0 0 0 0 0 0 0 0 0 0 0 0 0 0 0 0 0 0 0 0 0 0 0 0 0 0
0 0 0 1 0 0 0 0 0 0 0 0 0 0 0 0 0 0 0 0 0 0 0 0 0 0 0 0 0 0 0 0 0 0 0 0 0 0 0 0 0 0 0 0 0 0 0
0 0 1 0 0 0 0 0 0 0 0 0 0 0 0 0 0 0 0 0 0 0 0 0 0 0 0 0 0 0 0 0 0 0 0 0 0 0 0 0 0 0 0 0 0 0 0
0 0 0 0 0 0 0 0 0 0 0 0 0 0 0 0 0 0 0 0 0 0 0 0 0 0 0 0 0 0 0 0 0 0 0 0 0 0 0 0 0 0 0 0 0 0 0
0 1 0 0 0 0 0 0 0 0 0 0 0 0 0 0 0 0 0 0 0 0 0 0 0 0 0 0 0 0 0 0 0 0 0 0 0 0 0 0 0 0 0 0 0 0 0
0 0 0 0 0 0 0 0 0 0 0 0 0 0 0 0 0 0 0 0 0 0 0 0 0 0 0 0 0 0 0 0 0 0 0 0 0 0 0 0 0 0 0 0 0 0 0
0 0 0 1 0 0 0 0 0 0 0 0 0 0 0 0 0 0 0 0 0 0 0 0 0 0 0 0 0 0 0 0 0 0 0 0 0 0 0 0 0 0 0 0 1 7 0
0 0 0 0 0 0 0 0 0 0 0 0 0 0 0 0 0 0 0 0 0 0 0 0 0 0 0 0 0 0 0 0 0 0 0 0 0 0 0 0 0 0 0 0 3 9 22
0 0 0 0 0 0 0 0 0 0 0 0 0 0 0 0 0 0 0 0 0 0 0 0 0 0 0 0 0 0 0 0 0 0 0 0 0 0 0 0 0 0 0 0 0 0 0
0 0 1 0 0 0 0 0 0 0 0 0 0 0 0 0 0 0 0 0 0 0 0 0 0 0 0 0 0 0 0 0 0 0 0 0 0 0 0 0 0 0 0 0 0 0 0
0 0 0 0 0 0 0 0 0 0 0 0 0 0 0 0 0 0 0 0 0 0 0 0 0 0 0 0 0 0 0 0 0 0 0 0 0 0 0 0 0 0 0 0 6 4 0
1 0 0 0 0 0 0 0 0 0 0 0 0 0 0 0 0 0 0 0 0 0 0 0 0 0 0 0 0 0 0 0 0 0 0 0 0 0 0 0 0 0 1 3 0 0 0
1 0 0 0 0 0 0 0 0 0 0 0 0 0 0 0 0 0 0 0 0 0 0 0 0 0 0 0 0 0 0 0 0 0 0 0 0 0 0 0 0 1 0 2 0 0 0
1 0 0 0 0 0 0 0 0 0 0 0 0 0 0 0 0 0 0 0 0 0 0 0 0 0 0 0 0 0 0 0 0 0 0 0 0 0 0 0 0 3 0 0 0 0 0
1 0 2 1 0 0 0 0 0 0 0 0 0 0 0 0 0 0 0 0 0 0 0 0 0 0 0 0 0 0 0 0 0 0 0 0 0 3 1 0 0 1 0 0 0 1 0
3 0 2 1 0 0 0 0 0 0 0 0 0 0 0 0 0 0 0 0 0 0 0 0 0 0 0 0 0 0 0 0 0 0 0 0 0 1 2 7 3 1 0 0 0 0 0
5 0 2 0 1 0 0 0 0 0 0 0 0 0 0 0 0 0 0 0 0 0 0 0 0 0 0 0 0 0 0 0 0 0 0 0 0 1 0 4 6 0 0 0 0 0 0
6 1 2 7 2 0 0 0 0 0 0 0 0 0 0 0 0 0 0 0 0 0 0 0 0 0 0 0 0 0 0 0 0 0 0 3 0 0 2 4 1 0 0 0 0 0 0
7 2 0 1 2 0 0 0 0 0 0 0 0 0 0 0 0 0 0 0 0 0 0 0 0 0 0 0 0 1 0 2 0 0 0 0 0 8 0 0 0 0 0 0 0 0 0
6 3 0 0 0 0 0 0 0 0 0 0 0 0 0 0 0 0 0 0 0 0 0 0 0 0 0 0 0 0 4 2 0 5 0 0 0 0 0 0 0 0 0 0 0 0 0
CIN
-0 -0 -0 -0 -0 -0 -0 -0 -0 -0 -0 -0 -0 -0 -0 -0 -0 -0 -0 -0 -0 -0 -0 -0 -0 -0 -0 -0 -0 -0 -0 -0 -0 -0 -0 -0 -0 -0 -0 -0 -0 -0 -0 -0 -0 -0 -0
-1 -0 -0 -0 -0 -0 -0 -0 -0 -0 -0 -0 -0 -0 -0 -0 -0 -0 -0 -0 -0 -0 -0 -0 -0 -0 -0 -0 -0 -0 -0 -0 -0 -0 -0 -0 -0 -0 -0 -0 -0 -0 -0 -0 -0 -0 -0
-0 -0 -0 -0 -0 -0 -0 -0 -0 -0 -0 -0 -0 -0 -0 -0 -0 -0 -0 -0 -0 -0 -0 -0 -0 -0 -0 -0 -0 -0 -0 -0 -0 -0 -0 -0 -0 -0 -0 -0 -0 -0 -0 -0 -0 -0 -0
-0 -0 -0 -0 -0 -0 -0 -0 -0 -0 -0 -0 -0 -0 -0 -0 -0 -0 -0 -0 -0 -0 -0 -0 -0 -0 -0 -0 -0 -0 -0 -0 -0 -0 -0 -0 -0 -0 -0 -0 -0 -0 -0 -0 -0 -0 -0
-0 -0 -0 -0 -0 -0 -0 -0 -0 -0 -0 -0 -0 -0 -0 -0 -0 -0 -0 -0 -0 -0 -0 -0 -0 -0 -0 -0 -0 -0 -0 -0 -0 -0 -0 -0 -0 -0 -0 -0 -0 -0 -0 -0 -0 -0 -0
-0 -0 -0 -0 -0 -0 -0 -0 -0 -0 -0 -0 -0 -0 -0 -0 -0 -0 -0 -0 -0 -0 -0 -0 -0 -0 -0 -0 -0 -0 -0 -0 -0 -0 -0 -0 -0 -0 -0 -0 -0 -0 -0 -0 -0 -0 -0
-0 -0 -0 -0 -0 -0 -0 -0 -0 -0 -0 -0 -0 -0 -0 -0 -0 -0 -0 -0 -0 -0 -0 -0 -0 -0 -0 -0 -0 -0 -0 -0 -0 -0 -0 -0 -0 -0 -0 -0 -0 -0 -0 -0 -0 -0 -0
-0 -0 -0 -0 -0 -0 -0 -0 -0 -0 -0 -0 -0 -0 -0 -0 -0 -0 -0 -0 -0 -0 -0 -0 -0 -0 -0 -0 -0 -0 -0 -0 -0 -0 -0 -0 -0 -0 -0 -0 -0 -0 -0 -0 -0 -0 -0
-0 -0 -0 -0 -0 -0 -0 -0 -0 -0 -0 -0 -0 -0 -0 -0 -0 -0 -0 -0 -0 -0 -0 -0 -0 -0 -0 -0 -0 -0 -0 -0 -0 -0 -0 -0 -0 -0 -0 -0 -0 -0 -0 -0 -0 -0 -0
-0 -0 -0 -0 -0 -0 -0 -0 -0 -0 -0 -0 -0 -0 -0 -0 -0 -0 -0 -0 -0 -0 -0 -0 -0 -0 -0 -0 -0 -0 -0 -0 -0 -0 -0 -0 -0 -0 -0 -0 -0 -0 -0 -0 -0 -0 -0
-0 -0 -0 -0 -0 -0 -0 -0 -0 -0 -0 -0 -0 -0 -0 -0 -0 -0 -0 -0 -0 -0 -0 -0 -0 -0 -0 -0 -0 -0 -0 -0 -0 -0 -0 -0 -0 -0 -0 -0 -0 -0 -0 -0 -0 -0 -0
-0 -0 -0 -0 -0 -0 -0 -0 -0 -0 -0 -0 -0 -0 -0 -0 -0 -0 -0 -0 -0 -0 -0 -0 -0 -0 -0 -0 -0 -0 -0 -0 -0 -0 -0 -0 -0 -0 -0 -0 -0 -0 -0 -0 -0 -0 -0
-0 -0 -0 -0 -0 -0 -0 -0 -0 -0 -0 -0 -0 -0 -0 -0 -0 -0 -0 -0 -0 -0 -0 -0 -0 -0 -0 -0 -0 -0 -0 -0 -0 -0 -0 -0 -0 -0 -0 -0 -0 -0 -0 -0 -0 -0 -0
-0 -0 -0 -0 -0 -0 -0 -0 -0 -0 -0 -0 -0 -0 -0 -0 -0 -0 -0 -0 -0 -0 -0 -0 -0 -0 -0 -0 -0 -0 -0 -0 -0 -0 -0 -0 -0 -0 -0 -0 -0 -0 -0 -0 -0 -0 -0
-0 -0 -0 -0 -0 -0 -0 -0 -0 -0 -0 -0 -0 -0 -0 -0 -0 -0 -0 -0 -0 -0 -0 -0 -0 -0 -0 -0 -0 -0 -0 -0 -0 -0 -0 -0 -0 -0 -0 -0 -0 -0 -0 -0 -0 -0 -0
-0 -0 -0 -0 -0 -0 -0 -0 -0 -0 -0 -0 -0 -0 -0 -0 -0 -0 -0 -0 -0 -0 -0 -0 -0 -0 -0 -0 -0 -0 -0 -0 -0 -0 -0 -0 -0 -0 -0 -0 -0 -0 -0 -0 -1 -1 -0
-0 -0 -0 -0 -0 -0 -0 -0 -0 -0 -0 -0 -0 -0 -0 -0 -0 -0 -0 -0 -0 -0 -0 -0 -0 -0 -0 -0 -0 -0 -0 -0 -0 -0 -0 -0 -0 -0 -0 -0 -0 -0 -0 -0 -10 -9 -1
-0 -0 -0 -0 -0 -0 -0 -0 -0 -0 -0 -0 -0 -0 -0 -0 -0 -0 -0 -0 -0 -0 -0 -0 -0 -0 -0 -0 -0 -0 -0 -0 -0 -0 -0 -0 -0 -0 -0 -0 -0 -0 -0 -0 -0 -0 -0
-0 -0 -0 -0 -0 -0 -0 -0 -0 -0 -0 -0 -0 -0 -0 -0 -0 -0 -0 -0 -0 -0 -0 -0 -0 -0 -0 -0 -0 -0 -0 -0 -0 -0 -0 -0 -0 -0 -0 -0 -0 -0 -0 -0 -0 -0 -0
-0 -0 -0 -0 -0 -0 -0 -0 -0 -0 -0 -0 -0 -0 -0 -0 -0 -0 -0 -0 -0 -0 -0 -0 -0 -0 -0 -0 -0 -0 -0 -0 -0 -0 -0 -0 -0 -0 -0 -0 -0 -0 -0 -0 -2 -2 -0
-0 -0 -0 -0 -0 -0 -0 -0 -0 -0 -0 -0 -0 -0 -0 -0 -0 -0 -0 -0 -0 -0 -0 -0 -0 -0 -0 -0 -0 -0 -0 -0 -0 -0 -0 -0 -0 -0 -0 -0 -0 -0 -3 -4 -0 -1 -0
-0 -0 -0 -0 -0 -0 -0 -0 -0 -0 -0 -0 -0 -0 -0 -0 -0 -0 -0 -0 -0 -0 -0 -0 -0 -0 -0 -0 -0 -0 -0 -0 -0 -0 -0 -0 -0 -0 -0 -0 -0 -2 -2 -0 -0 -0 -0
-0 -0 -0 -0 -0 -0 -0 -0 -0 -0 -0 -0 -0 -0 -0 -0 -0 -0 -0 -0 -0 -0 -0 -0 -0 -0 -0 -0 -0 -0 -0 -0 -0 -0 -0 -0 -0 -0 -0 -0 -0 -2 -0 -0 -0 -0 -0
-0 -0 -0 -0 -0 -0 -0 -0 -0 -0 -0 -0 -0 -0 -0 -0 -0 -0 -0 -0 -0 -0 -0 -0 -0 -0 -0 -0 -0 -0 -0 -0 -0 -0 -0 -0 -0 -1 -2 -1 -0 -1 -0 -0 -0 -0 -0
-0 -0 -0 -0 -0 -0 -0 -0 -0 -0 -0 -0 -0 -0 -0 -0 -0 -0 -0 -0 -0 -0 -0 -0 -0 -0 -0 -0 -0 -0 -0 -0 -0 -0 -0 -0 -4 -2 -1 -2 -3 -9 -0 -0 -0 -0 -0
-0 -0 -0 -0 -0 -0 -0 -0 -0 -0 -0 -0 -0 -0 -0 -0 -0 -0 -0 -0 -0 -0 -0 -0 -0 -0 -0 -0 -0 -0 -0 -0 -0 -0 -0 -0 -0 -0 -5 -2 -2 -0 -0 -0 -0 -0 -0
-0 -0 -0 -0 -0 -0 -0 -0 -0 -0 -0 -0 -0 -0 -0 -0 -0 -0 -0 -0 -0 -0 -0 -0 -0 -0 -0 -0 -0 -0 -0 -0 -0 -0 -0 -2 -0 -0 -3 -2 -2 -0 -0 -0 -0 -0 -0
-0 -0 -0 -0 -0 -0 -0 -0 -0 -0 -0 -0 -0 -0 -0 -0 -0 -0 -0 -0 -0 -0 -0 -0 -0 -0 -0 -0 -0 -1 -0 -1 -3 -0 -1 -5 -2 -2 -0 -0 -0 -0 -0 -0 -0 -0 -0
-0 -0 -0 -0 -0 -0 -0 -0 -0 -0 -0 -0 -0 -0 -0 -0 -0 -0 -0 -0 -0 -0 -0 -0 -0 -0 -0 -0 -0 -0 -1 -2 -0 -2 -0 -0 -0 -0 -0 -0 -0 -0 -0 -0 -0 -0 -0
Wind_Speed
16 18 19 20 21 21 22 23 24 24 25 26 27 28 28 29 29 27 25 23 20 19 18 15 11 12 14 13 14 14 15 18 17 16 16 15 14 13 12 12 13 9 11 13 13 12 13
17 19 20 21 22 23 24 25 25 25 26 27 28 29 30 30 28 25 23 22 21 20 19 10 18 17 15 11 15 14 15 15 17 15 15 16 14 14 14 14 13 14 15 14 16 11 13
18 19 20 22 23 24 25 25 26 27 27 28 29 30 29 27 25 24 23 23 22 23 21 18 16 15 16 15 15 15 15 15 17 16 16 16 16 15 15 16 16 18 20 18 14 17 18
18 20 21 22 23 24 25 26 27 28 28 29 30 29 27 26 24 24 24 25 25 22 19 17 16 15 15 16 15 15 15 15 16 17 16 17 17 17 17 17 18 18 19 21 17 16 19
18 19 20 22 23 24 25 26 27 28 29 30 29 28 27 26 25 25 25 26 21 20 18 17 16 15 16 16 15 16 15 14 15 17 17 17 18 18 17 18 19 19 23 20 23 17 20
17 19 21 22 23 24 25 26 27 28 29 29 28 28 27 26 26 27 26 21 20 18 18 17 16 15 16 16 16 16 16 16 17 17 17 17 18 18 17 15 19 21 22 21 23 23 21
18 20 20 22 23 25 25 26 28 29 29 28 28 27 27 27 27 28 23 20 20 19 22 20 19 18 17 17 16 17 15 15 16 16 16 18 16 15 17 16 20 21 23 26 27 27 29
17 18 20 22 24 25 26 27 28 28 28 28 28 29 29 29 28 26 23 22 21 19 20 20 19 19 17 16 16 16 14 14 14 15 15 15 16 16 15 16 18 21 26 30 31 27 27
17 18 20 22 23 25 26 28 28 28 29 29 29 29 29 30 23 24 24 22 20 18 19 19 18 19 18 17 17 18 16 16 16 15 15 17 17 15 18 19 21 24 27 32 35 33 31
17 19 20 21 23 25 26 27 28 29 30 30 30 29 29 28 21 22 22 22 19 17 18 20 18 18 19 17 17 17 17 18 18 19 20 19 17 16 19 23 23 33 26 28 31 35 40
17 19 20 22 23 25 26 27 28 29 30 30 29 29 28 26 20 21 21 20 17 17 22 18 18 16 18 18 18 19 17 18 21 21 21 22 21 22 23 24 21 29 26 30 32 36 41
17 19 21 22 23 25 26 27 28 29 30 30 28 27 24 22 21 21 20 17 17 19 20 17 17 19 20 20 20 20 20 18 20 22 20 21 23 23 24 26 23 25 29 32 32 34 45
18 19 21 22 24 25 26 27 29 30 29 29 26 24 23 21 22 22 18 17 20 19 18 19 18 21 23 23 23 24 24 26 28 32 30 31 27 23 23 28 25 25 30 38 39 39 44
18 19 22 22 23 25 26 28 29 30 28 28 24 21 21 23 21 19 17 18 20 18 18 19 20 23 23 25 22 24 25 27 29 29 32 36 37 28 24 26 31 29 29 36 45 49 51
16 19 21 22 23 25 27 29 29 28 28 26 20 19 19 26 20 17 18 21 21 19 19 22 23 24 22 22 26 27 27 28 28 30 32 36 35 26 26 29 29 30 34 35 44 46 50
16 19 20 22 23 25 26 27 28 28 28 22 18 19 20 26 19 18 19 20 19 19 21 21 25 24 26 27 30 29 27 27 28 29 27 31 43 31 30 31 25 31 36 43 39 52 57
15 18 19 21 24 25 26 27 28 28 27 20 18 20 20 22 17 20 21 20 19 19 21 24 24 26 27 30 28 29 28 28 28 29 27 32 33 37 40 37 41 45 45 43 44 41 52
15 17 19 21 22 25 26 27 28 26 24 19 19 22 22 18 21 20 20 20 20 21 23 24 23 25 27 28 30 29 29 27 27 30 34 31 34 47 48 46 39 38 33 38 45 47 45
15 16 19 21 22 24 26 28 28 25 21 17 20 21 21 17 22 20 19 20 21 23 25 25 25 25 25 27 30 28 29 22 29 33 34 34 36 51 52 34 30 40 47 43 43 42 49
14 15 18 20 22 24 26 28 28 22 18 17 19 22 22 20 19 18 20 22 23 22 23 23 23 24 26 28 27 30 31 27 30 33 27 30 35 39 48 48 46 49 45 43 41 45 48
13 14 16 18 20 22 25 27 27 21 16 17 20 20 19 21 22 20 20 21 23 25 23 23 25 25 28 30 32 31 30 32 31 25 27 32 37 36 36 38 38 38 39 37 37 37 40
11 13 14 17 18 21 24 26 27 20 16 18 20 19 19 20 20 20 22 23 23 23 24 26 26 26 26 30 30 34 32 32 31 29 30 28 35 35 37 32 33 36 30 28 30 33 31
9 12 13 15 17 20 22 25 26 23 17 17 16 16 18 20 20 21 22 22 22 21 24 22 24 27 29 27 25 27 27 28 27 28 28 28 30 35 36 32 35 26 28 27 27 29 30
7 10 12 14 16 18 21 23 24 24 19 15 15 15 19 22 21 22 20 21 21 23 24 23 24 27 25 26 27 26 25 24 23 21 19 26 26 28 34 31 35 22 25 23 29 24 28
6 8 10 13 16 18 20 22 22 22 21 17 16 16 17 21 19 19 19 21 21 23 24 24 24 24 26 28 32 34 30 27 25 21 18 16 24 29 29 30 27 20 23 27 30 26 28
3 7 9 12 14 17 18 19 21 22 20 19 20 18 18 18 19 17 20 20 23 25 25 24 22 24 25 28 31 37 36 32 30 25 19 17 19 23 26 29 29 23 27 30 26 27 29
3 5 8 11 13 15 18 19 20 20 20 19 21 20 18 20 17 17 21 22 22 24 25 24 27 26 25 29 32 33 32 26 30 27 26 25 21 22 24 25 23 24 29 26 26 30 43
3 5 7 10 13 15 16 17 18 20 20 19 21 24 19 20 17 19 20 22 21 22 28 26 27 26 27 29 29 28 28 24 25 24 24 21 23 22 22 24 23 28 27 29 28 35 39
3 5 8 9 12 13 15 16 18 20 21 19 21 22 22 21 19 19 20 19 20 20 23 24 24 24 23 24 23 24 25 24 24 24 20 21 19 21 20 21 21 25 19 19 23 23 34
Wind_Direction
320 318 321 323 323 324 324 326 322 318 316 319 323 326 326 322 316 303 295 288 279 273 270 256 233 52 51 59 46 27 15 349 354 0 5 10 11 8 8 2 355 0 350 342 338 337 332
314 315 317 319 322 324 324 324 321 318 318 323 323 324 323 315 303 293 287 283 279 275 271 25 17 17 25 36 15 19 10 11 359 4 3 360 4 357 352 347 342 339 333 332 325 328 323
312 309 314 317 319 321 323 323 321 319 321 322 325 320 308 301 293 287 284 285 285 292 355 13 20 23 16 13 14 11 8 6 360 0 357 353 353 349 349 340 335 330 326 325 320 317 316
319 314 315 316 317 317 319 319 321 322 323 322 319 308 301 299 291 287 286 290 303 348 6 16 18 20 11 10 14 7 6 3 3 1 359 353 347 345 337 336 332 329 326 319 324 321 318
326 322 318 317 319 319 317 318 318 320 323 321 313 308 304 299 294 292 293 304 353 3 10 11 15 16 6 12 9 5 3 358 355 352 351 349 344 338 336 328 324 323 315 317 316 319 316
329 324 319 316 315 316 319 321 320 318 318 315 311 308 305 300 300 302 309 352 359 6 8 13 13 11 6 359 358 355 355 352 345 345 345 343 339 332 331 327 319 320 317 317 313 316 312
324 319 323 320 316 315 317 320 322 321 315 310 306 305 307 308 311 317 351 358 359 359 356 354 352 352 351 352 356 352 355 353 348 346 341 341 337 332 330 326 322 319 316 312 310 313 309
331 328 322 323 322 319 317 321 321 316 315 310 306 309 313 315 324 342 354 357 358 358 353 357 360 1 7 6 5 5 10 4 4 359 0 355 341 344 343 337 325 318 314 311 312 314 310
330 327 326 324 324 324 322 322 318 320 321 314 313 313 314 319 349 355 1 1 3 10 360 5 11 11 14 19 18 15 17 15 9 5 358 345 344 342 332 326 320 314 310 311 309 312 308
329 328 328 329 328 328 328 325 320 321 321 318 317 322 323 329 358 1 359 1 9 18 1 1 10 14 16 19 17 20 17 6 357 349 345 338 342 333 327 319 316 311 312 310 310 310 305
323 325 329 331 330 329 328 324 323 319 317 318 321 328 336 350 1 1 0 1 18 13 346 6 11 22 17 11 6 3 9 356 342 339 340 334 332 325 319 318 317 314 317 311 309 304 304
324 323 325 325 327 329 330 325 318 314 316 319 325 332 345 357 4 1 360 14 9 356 345 3 7 1 359 1 355 352 353 355 347 338 333 323 328 323 318 320 314 319 315 312 309 305 298
321 325 324 326 324 325 322 320 315 316 319 321 327 339 356 5 355 354 8 5 352 347 360 357 359 355 347 344 344 345 344 342 336 331 330 328 324 327 325 320 322 315 312 309 305 301 299
321 325 324 325 326 326 323 320 320 317 320 321 333 351 357 358 353 1 3 359 342 348 349 352 349 344 341 344 345 343 338 334 341 335 326 325 323 331 334 327 323 317 311 304 302 300 299
322 323 326 325 324 325 325 322 322 320 319 325 348 353 358 345 357 4 359 344 343 347 350 345 343 340 342 344 340 338 337 334 338 339 327 324 320 333 331 325 323 318 308 310 301 298 297
321 324 326 322 323 325 326 326 322 319 319 338 351 354 351 341 357 355 349 341 344 345 344 344 337 340 334 335 334 334 333 338 334 339 337 328 317 325 328 327 323 318 316 306 301 299 294
321 323 325 326 324 324 326 326 324 319 323 343 350 344 350 348 357 344 337 341 344 347 346 341 336 333 333 331 332 331 331 335 337 335 337 329 319 315 322 319 314 312 308 304 304 299 297
315 321 321 323 326 325 324 325 324 323 330 345 345 331 344 354 337 343 339 343 345 341 344 340 341 337 333 334 331 330 328 332 341 337 328 328 319 313 313 315 316 312 312 318 305 299 298
311 319 320 318 324 325 326 324 325 327 337 346 333 333 345 349 330 335 341 342 341 337 338 338 338 341 339 333 330 332 332 336 337 334 329 328 321 317 316 320 322 319 314 313 310 301 294
311 317 320 323 322 325 328 328 325 331 344 344 336 330 337 343 343 339 336 334 334 344 340 343 340 340 337 334 335 330 329 336 334 331 332 331 323 318 314 313 315 314 314 313 309 302 299
310 318 319 323 323 326 329 331 332 337 345 344 334 329 335 332 334 338 338 337 333 332 340 343 340 339 335 331 331 330 332 332 335 338 335 333 324 325 323 322 322 322 321 322 320 316 306
316 318 328 327 330 328 329 331 336 335 346 338 329 330 337 334 337 338 337 335 332 336 337 335 335 338 338 332 332 330 332 333 331 332 332 335 328 330 329 333 333 328 335 333 333 331 326
323 316 326 329 340 338 334 335 341 337 338 338 344 342 335 334 335 335 335 335 338 342 343 345 341 338 335 337 338 334 330 326 325 329 333 335 334 333 328 335 333 328 338 337 338 338 333
323 322 325 331 338 344 348 341 348 348 350 349 350 347 335 330 334 335 341 343 343 343 340 342 344 340 343 342 338 337 338 338 336 333 334 336 336 336 330 336 332 346 348 345 338 341 338
324 333 332 332 336 341 342 344 344 352 358 359 356 350 343 335 340 344 345 345 347 346 343 342 346 348 347 344 338 336 338 338 341 345 344 340 340 337 335 335 336 342 347 343 340 332 334
342 337 338 337 339 344 348 349 347 349 355 1 358 359 352 347 340 349 345 346 342 341 342 344 352 351 348 342 339 333 333 336 337 340 352 350 342 339 337 334 334 344 343 342 341 330 330
40 17 355 355 350 347 344 348 350 351 360 4 0 360 1 352 354 355 347 344 346 345 341 346 345 347 350 342 337 336 336 342 337 337 340 341 344 338 339 336 342 349 345 351 340 333 324
47 22 355 351 346 349 350 355 358 358 360 4 4 1 1 354 0 357 355 348 350 349 340 346 344 347 345 340 341 341 339 343 340 343 342 345 344 343 349 344 344 346 348 344 340 333 330
37 12 1 10 8 1 358 359 359 359 0 5 2 5 7 3 360 2 2 4 2 360 352 351 348 349 352 347 347 346 341 342 344 341 355 346 352 346 349 348 351 352 352 359 357 346 339